Погода в Кобане

Россия / Республика Северная Осетия — Алания     42°54′58″N   44°28′43″E
темп.,
°C
ветер,
м/с
пор.,
м/с
влажн.,
%
обл.,
%
осадки,
мм/ч
давл.,
гПа
погр.,
м
16 апреля, пт
пт1600:00+8ююз21688 0.0 101912
03:00+7ююз11639 0.0 101911
06:00+7ю11653 0.0 102012
09:00+12ссв22550 0.0 1019699
12:00+16ссв334419 0.0 10171568
15:00+16св434547 0.4 10171635
18:00+14всв345699 0.2 1016172
21:00+11ююз22575 0.2 101825
17 апреля, сб
сб1700:00+10ю22515 0.0 101919
03:00+9ю21506 0.0 101815
06:00+9ю215380 0.0 101718
09:00+13ссз3349100 0.0 1018466
12:00+14ссз4363100 0.0 10201168
15:00+10сз3387100 0.1 1020486
18:00+8сз2496100 0.6 1023389
21:00+8ссз0195100 1.0 1023217
18 апреля, вс
вс1800:00+7с1196100 0.0 1021159
03:00+7св1198100 0.1 1021171
06:00+7ссв1298100 0.0 1021181
09:00+9ссв219291 0.1 1019342
12:00+12с217786 0.0 1017611
15:00+13ссв2176100 0.1 1017577
18:00+12сз3386100 0.4 1018289
21:00+10вюв1294100 1.4 1020149
19 апреля, пн
пн1900:00+10ююз1180100 0.0 101711
03:00+10ю117796 0.0 101711
06:00+11ю216928 0.0 101714
09:00+16ссв2158100 0.0 1017414
12:00+20ссв3345100 0.0 10141071
15:00+21ссв2343100 0.0 10121484
18:00+17всв246055 0.1 1014146
21:00+13ююз226877 0.1 101526
20 апреля, вт
вт2000:00+13ю226398 0.0 101319
03:00+13ю325991 0.0 101129
06:00+15ю2254100 0.0 100822
09:00+21св1244100 0.0 1006224
12:00+24юв2437100 0.0 1004835
15:00+23ссв0246100 0.0 1004475
18:00+16зсз6982100 0.7 1010699
21:00+14ююв3592100 13.6 1010182